CARTOSAT-2F (43111 NORAD) Tracking and Keplerian Element Data

This shows tracking and keplerian element data for the satellite.

Feedback or suggestion? Click here.




ElementValue
Catalog43111
NameCARTOSAT-2F
Epoch Orbit4731
Epoch Day323.81392836
Epoch Year2018
RAAN23.2759
Inclination97.4646
Eccentricity0.000283
Argument of Perigee261.7208
Mean Anonmoly208.7334
Mean Motion15.19242982
Decay Rate6.07E-06
L11 43111U 18004A 18323.81392836 .00000607 00000-0 32030-4 0 9995
L22 43111 97.4646 23.2759 0002830 261.7208 208.7334 15.19242982 47310

Live tracking and technical data element details for CARTOSAT-2F (NORAD 43111). CARTOSAT-2F can be tracked NOW for your location showing map with azimuth and elevation plus other details from your city location.

Track the satellite on the map from your city or location and see movement details for azimuth, elevation, latitude, longitude, range, height, and movement on the map or in text.







IsCatalogInMostPopularTable: catalog: 43111, numindb: 116
Update: records affected: 1



GetName: 43111 CARTOSAT-2F

Hit Count: updated at: Wed, 21 Nov 2018 06:13:52 GMT